Flag for Germany Weather past 2 weeks in Singen (Hohentwiel), Baden-Württemberg, Germany

37 °F


Feels Like: 34 °F
Forecast: 20 / 37 °F
Wind: 3 mph from Northeast

Location: Konstanz

Current Time: Nov 27, 2015 at 2:54:13 AM

Latest Report: Nov 27, 2015 at 2:00 AM

Visibility: 12 mi

Pressure: 30.17 "Hg

Humidity: 84%

Dew point: 33 °F

Location of Singen (Hohentwiel)Location

Historic Weather in Singen (Hohentwiel) — Graph


Singen (Hohentwiel) temperature yesterday

Maximum temperature yesterday: 40 °F (at 4:00 PM)
Minimum temperature yesterday: 36 °F (at 8:00 AM)
Average temperature yesterday: 38 °F

Past Weeks' High & Low Weather Summary

High64 °F (Nov 15, 3:00 PM)100% (Nov 11, 10:00 PM)30.50 "Hg (Nov 11, 10:00 PM)
Low30 °F (Nov 24, 6:00 AM)48% (Nov 15, 11:00 AM)29.44 "Hg (Nov 21, 2:00 PM)
Average46 °F77%30.10 "Hg
* Reported Nov 11 10:00 PM — Nov 26 10:00 PM, Singen (Hohentwiel), Weather by CustomWeather, © 2015

Note: Actual official high and low records may vary slightly from our data, if they occured in-between our weather recording intervals... More about our weather records


Singen (Hohentwiel) weather history for previous 24 hours

Time TempWeatherWind HumidityBarometerVisibility
10:00 PM
Thu, Nov 26
37 °FOvercast.1 mph90%30.17 "Hg9 mi
9:00 PM38 °FOvercast.2 mph87%30.16 "Hg12 mi
8:00 PM38 °FOvercast.2 mph85%30.15 "Hg12 mi
7:00 PM38 °FOvercast.1 mph85%30.13 "Hg12 mi
6:00 PM39 °FOvercast.1 mph86%30.11 "Hg12 mi
5:00 PM39 °FOvercast.1 mph85%30.08 "Hg11 mi
4:00 PM40 °FOvercast.2 mph83%30.06 "Hg11 mi
3:00 PM38 °FLight rain. Overcast.1 mph89%30.04 "Hg10 mi
2:00 PM37 °FLight rain. Overcast.1 mph89%30.03 "Hg9 mi
1:00 PM39 °FSprinkles. Overcast.2 mph87%30.02 "Hg11 mi
12:00 PM40 °FOvercast.2 mph84%30.01 "Hg15 mi
11:00 AM39 °FOvercast.2 mph86%30.00 "Hg12 mi
10:00 AM38 °FOvercast.2 mph91%29.98 "Hg9 mi
9:00 AM36 °FLight rain. Low clouds.3 mph91%29.96 "Hg6 mi
8:00 AM36 °FLight rain. Overcast.2 mph92%29.94 "Hg7 mi
7:00 AM36 °FOvercast.2 mph88%29.91 "Hg10 mi
4:00 AM36 °FLight rain. Overcast.1 mph93%29.85 "Hg8 mi
3:00 AM37 °FLight rain. Overcast.2 mph92%29.84 "Hg6 mi
2:00 AM37 °FLight rain. Overcast.1 mph93%29.82 "Hg7 mi
Weather by CustomWeather, © 2015

See weather overviewHow to use our weather pages